Regional Weather Roundup
Issued by NWS

Home | Current Version | Previous Version | Text Only | Print | Product List | Glossary On
Versions: 1 2 3 4 5 6 7 8 9 10 11 12 13 14 15 16 17 18 19 20 21 22 23 24 25 26 27 28 29 30 31 32 33 34 35 36 37 38 39 40 41 42 43 44 45 46 47 48 49 50
000
ASUS43 KTOP 292208
RWRKS

WEATHER ROUNDUP FOR KANSAS
NATIONAL WEATHER SERVICE GOODLAND KS
500 PM CDT THU SEP 29 2016

NOTE:  "FAIR" INDICATES FEW OR NO CLOUDS BELOW 12,000 FEET WITH NO
SIGNIFICANT WEATHER AND/OR OBSTRUCTIONS TO VISIBILITY.

KSZ001>006-013>018-027>032-041>047-292300-
NORTHWEST KANSAS

CITY           SKY/WX    TMP DP  RH WIND       PRES   REMARKS
GOODLAND       SUNNY     74  42  31 S21G33    30.30F
HAYS           SUNNY     70  43  37 E9        30.33F
HILL CITY      SUNNY     70  44  39 SE7       30.33F
RUSSELL        SUNNY     69  45  41 VRB7      30.32F
$$

KSZ061>065-074>080-084>089-292300-
SOUTHWEST KANSAS

CITY           SKY/WX    TMP DP  RH WIND       PRES   REMARKS
DODGE CITY     SUNNY     74  37  26 VRB3      30.32F
ELKHART          N/A     77  46  33 SE12        N/A
GARDEN CITY    SUNNY     74  39  28 SE9       30.31F
GREAT BEND     SUNNY     70  45  40 CALM      30.32F
LIBERAL        MOSUNNY   73  41  31 S6        30.33F
PRATT          SUNNY     68  42  38 NE5       30.32F
$$

KSZ066>073-081>083-090>101-292300-
SOUTHEAST KANSAS

CITY           SKY/WX    TMP DP  RH WIND       PRES   REMARKS
CHANUTE        SUNNY     72  46  39 N8        30.28F
COFFEYVILLE    SUNNY     73  48  41 N12       30.27F
HUTCHINSON     SUNNY     70  48  45 VRB3      30.32F
MEDICINE LODGE   N/A     70  47  43 E9        30.30F
NEWTON         SUNNY     68  50  52 VRB6      30.32F
PARSONS        SUNNY     72  47  40 N8        30.28F
WICHITA INTL   MOSUNNY   71  49  45 VRB6      30.31F
WICHITA JABRA  SUNNY     71  50  47 N6        30.30F
WICHITA MCCONL SUNNY     70  50  49 N9        30.30F
WINFIELD       SUNNY     72  50  45 N12       30.30F
$$

KSZ007>012-019>026-033>040-048>060-102>105-292300-
NORTHEAST KANSAS

CITY           SKY/WX    TMP DP  RH WIND       PRES   REMARKS
CONCORDIA      SUNNY     70  47  43 NE8       30.33F
EMPORIA        SUNNY     70  48  45 N9        30.30F
LAWRENCE       SUNNY     71  49  45 NW8       30.29F
MANHATTAN      SUNNY     71  49  45 VRB3      30.31F
MARYSVILLE     SUNNY     70  48  46 NE8       30.33F
OLATHE IND     SUNNY     70  48  45 NW9       30.30F
OLATHE EXE     SUNNY     71  45  39 N9        30.29F
SALINA         SUNNY     71  49  45 N8        30.32F
TOPEKA BILLARD SUNNY     71  49  45 N9        30.30F
TOPEKA FORBES  SUNNY     72  49  44 N9        30.30F
$$



USA.gov is the U.S. government's official web portal to all federal, state and local government web resources and services.